TimeEDT,TemperatureF,Dew PointF,Humidity,Sea Level PressureIn,VisibilityMPH,Wind Direction,Wind SpeedMPH,Gust SpeedMPH,PrecipitationIn,Events,Conditions,WindDirDegrees,DateUTC
12:53 AM,75.9,64.0,67,30.04,10.0,SSE,4.6,-,N/A,,Clear,150,2013-05-30 04:53:00
1:53 AM,75.0,64.0,69,30.06,10.0,Calm,Calm,-,N/A,,Clear,0,2013-05-30 05:53:00
2:53 AM,73.9,62.1,66,30.06,10.0,South,3.5,-,N/A,,Clear,170,2013-05-30 06:53:00
3:53 AM,73.0,61.0,66,30.08,10.0,Calm,Calm,-,N/A,,Clear,0,2013-05-30 07:53:00
4:53 AM,72.0,61.0,68,30.08,10.0,Calm,Calm,-,N/A,,Partly Cloudy,0,2013-05-30 08:53:00
5:53 AM,72.0,61.0,68,30.09,10.0,Calm,Calm,-,N/A,,Partly Cloudy,0,2013-05-30 09:53:00
6:53 AM,72.0,61.0,68,30.10,10.0,SSE,3.5,-,N/A,,Clear,160,2013-05-30 10:53:00
7:53 AM,73.0,62.1,68,30.12,10.0,SSE,4.6,-,N/A,,Clear,150,2013-05-30 11:53:00
8:53 AM,75.0,63.0,66,30.13,10.0,SSE,6.9,-,N/A,,Clear,150,2013-05-30 12:53:00
9:53 AM,79.0,64.0,60,30.12,10.0,South,10.4,16.1,N/A,,Partly Cloudy,180,2013-05-30 13:53:00
10:53 AM,81.0,63.0,54,30.10,10.0,South,10.4,20.7,N/A,,Partly Cloudy,190,2013-05-30 14:53:00
11:53 AM,82.0,64.9,56,30.10,10.0,South,9.2,-,N/A,,Scattered Clouds,170,2013-05-30 15:53:00
12:53 PM,82.9,64.9,54,30.10,10.0,SSW,12.7,18.4,N/A,,Partly Cloudy,210,2013-05-30 16:53:00
1:53 PM,84.9,66.0,53,30.07,10.0,South,11.5,-,N/A,,Scattered Clouds,170,2013-05-30 17:53:00
2:53 PM,87.1,66.0,49,30.05,10.0,South,12.7,19.6,N/A,,Clear,190,2013-05-30 18:53:00
3:53 PM,86.0,66.0,51,30.03,10.0,South,12.7,19.6,N/A,,Scattered Clouds,170,2013-05-30 19:53:00
4:53 PM,87.1,66.0,49,30.02,10.0,SSE,12.7,19.6,N/A,,Partly Cloudy,150,2013-05-30 20:53:00
5:53 PM,84.9,66.9,55,30.01,10.0,SSE,10.4,-,N/A,,Clear,160,2013-05-30 21:53:00
6:53 PM,84.0,66.0,55,30.01,10.0,South,9.2,-,N/A,,Clear,180,2013-05-30 22:53:00
7:53 PM,82.9,66.0,56,30.00,10.0,SSE,5.8,-,N/A,,Clear,150,2013-05-30 23:53:00
8:53 PM,82.0,64.9,56,30.00,10.0,SE,8.1,16.1,N/A,,Clear,140,2013-05-31 00:53:00
9:53 PM,80.1,64.9,60,30.01,10.0,SSE,4.6,-,N/A,,Clear,150,2013-05-31 01:53:00
10:53 PM,78.1,64.9,64,30.04,10.0,Variable,5.8,-,N/A,,Clear,0,2013-05-31 02:53:00
11:53 PM,77.0,64.9,66,30.04,10.0,SSE,5.8,-,N/A,,Clear,150,2013-05-31 03:53:00